Date String (YYYY-MM-DD hh:mm:ss) UTC,Instrument flags,Ambient pressure (hPa),Sample flow (lpm),Bypass flow (lpm),Sample temperature (°C),Ambient temperature (°C),ASC tube jacket temperature (°C),LED temperature (°C),Box temperature (°C),Sample RH (%),Span deviation,Mass concentration (μg/m³),Mass concentration (μg/m³),Mass concentration (μg/m³)
DateTimeUTC,F1_M11,P_M11,Q1_M11,Q2_M11,T1_M11,T2_M11,T3_M11,T4_M11,T5_M11,U1_M11,ZSPAN_M11,X0_M11,X2_M11,X1_M11
2023-01-20 17:00:00,,0829.0,5.02,0.00,22.8,21.8,00.0,31.5,24.6,09.7,0000.0,0013.16,0007.63,0006.82
2023-01-20 17:01:00,,0829.0,5.01,0.00,22.8,21.6,00.0,31.5,24.6,09.7,0000.0,0013.91,0008.01,0007.12
2023-01-20 17:02:00,,0829.0,4.99,0.00,22.7,21.4,00.0,31.5,24.5,09.7,0000.0,0014.74,0008.15,0007.29
2023-01-20 17:03:00,,0829.0,4.99,0.00,22.7,21.3,00.0,31.5,24.5,09.7,0000.0,0015.44,0008.28,0007.46
2023-01-20 17:04:00,,0828.7,5.00,0.00,22.7,21.2,00.0,31.5,24.4,09.7,0000.0,0016.16,0008.63,0007.85
2023-01-20 17:05:00,,0828.7,5.02,0.00,22.7,21.1,00.0,31.5,24.4,09.7,0000.0,0016.78,0009.04,0008.24
2023-01-20 17:06:00,,0828.5,5.01,0.00,22.7,21.0,00.0,31.5,24.4,09.8,0000.0,0017.10,0009.43,0008.66
2023-01-20 17:07:00,,0828.4,4.99,0.00,22.6,20.9,00.0,31.4,24.3,09.7,0000.0,0017.06,0009.86,0009.07
2023-01-20 17:08:00,,0828.4,5.01,0.00,22.6,20.9,00.0,31.4,24.3,09.8,0000.0,0017.49,0010.26,0009.47
2023-01-20 17:09:00,,0828.5,5.02,0.00,22.6,20.9,00.0,31.4,24.3,09.9,0000.0,0017.95,0010.68,0009.88
2023-01-20 17:10:00,,0828.5,5.02,0.00,22.6,20.9,00.0,31.4,24.3,09.9,0000.0,0018.01,0011.05,0010.26
2023-01-20 17:11:00,,0828.5,5.01,0.00,22.5,20.8,00.0,31.4,24.3,10.0,0000.0,0017.93,0011.24,0010.50
2023-01-20 17:12:00,,0828.9,5.02,0.00,22.5,20.9,00.0,31.4,24.2,10.1,0000.0,0017.78,0011.27,0010.61
2023-01-20 17:13:00,,0829.0,4.99,0.00,22.5,20.9,00.0,31.4,24.2,10.1,0000.0,0017.98,0011.49,0010.85
2023-01-20 17:14:00,,0828.6,5.00,0.00,22.5,20.8,00.0,31.4,24.2,10.1,0000.0,0017.76,0011.74,0011.09
2023-01-20 17:15:00,,0828.5,5.00,0.00,22.5,20.9,00.0,31.3,24.2,09.8,0000.0,0017.80,0011.73,0011.09
2023-01-20 17:16:00,,0828.5,5.01,0.00,22.5,21.9,00.0,31.3,24.4,09.8,0000.0,0018.38,0011.66,0011.03
2023-01-20 17:17:00,,0828.7,5.00,0.00,22.6,22.9,00.0,31.3,24.6,09.7,0001.0,0018.01,0011.62,0010.97
2023-01-20 17:18:00,,0828.4,4.99,0.00,22.7,22.8,00.0,31.4,24.7,09.7,0001.1,0017.88,0011.54,0010.92
2023-01-20 17:19:00,,0828.5,5.00,0.00,22.7,22.3,00.0,31.4,24.7,09.7,0001.1,0017.75,0011.50,0010.90
2023-01-20 17:20:00,,0828.5,5.01,0.00,22.7,21.9,00.0,31.4,24.6,09.7,0001.7,0017.72,0011.49,0010.91
2023-01-20 17:21:00,,0828.5,5.01,0.00,22.7,21.6,00.0,31.4,24.5,09.8,0001.8,0017.67,0011.49,0010.92
2023-01-20 17:22:00,,0828.5,5.00,0.00,22.7,21.4,00.0,31.4,24.5,09.8,0001.5,0017.94,0011.48,0010.91
2023-01-20 17:23:00,,0828.5,5.01,0.00,22.7,21.2,00.0,31.4,24.4,09.7,0001.7,0017.79,0011.48,0010.92
2023-01-20 17:24:00,,0828.4,5.00,0.00,22.6,21.1,00.0,31.4,24.4,09.7,0001.1,0017.05,0011.48,0010.89
2023-01-20 17:25:00,,0828.5,5.01,0.00,22.6,21.0,00.0,31.4,24.4,09.6,0001.0,0016.81,0011.42,0010.84
2023-01-20 17:26:00,,0828.4,5.00,0.00,22.6,21.0,00.0,31.4,24.3,09.6,0001.1,0016.86,0011.43,0010.82
2023-01-20 17:27:00,,0828.4,5.00,0.00,22.6,21.0,00.0,31.4,24.3,09.6,0001.4,0016.10,0011.44,0010.81
2023-01-20 17:28:00,,0828.4,5.00,0.00,22.6,21.0,00.0,31.4,24.3,09.7,0001.3,0016.10,0011.44,0010.82
2023-01-20 17:29:00,,0828.4,5.00,0.00,22.6,21.0,00.0,31.4,24.4,10.3,0001.4,0016.17,0011.48,0010.87
2023-01-20 17:30:00,,0828.4,5.01,0.00,22.6,21.1,00.0,31.4,24.3,10.5,0001.1,0016.33,0011.53,0010.91
2023-01-20 17:31:00,,0828.3,5.03,0.00,22.6,21.1,00.0,31.4,24.3,10.5,0000.7,0016.56,0011.55,0010.91
2023-01-20 17:32:00,,0828.4,5.01,0.00,22.6,21.1,00.0,31.4,24.3,10.4,0000.7,0016.97,0011.57,0010.90
2023-01-20 17:33:00,,0828.4,4.99,0.00,22.6,21.1,00.0,31.4,24.3,10.3,0000.2,0016.76,0011.56,0010.87
2023-01-20 17:34:00,,0828.4,5.01,0.00,22.6,21.1,00.0,31.4,24.3,10.1,0000.3,0016.74,0011.54,0010.84
2023-01-20 17:35:00,,0828.4,4.99,0.00,22.6,21.1,00.0,31.3,24.3,10.1,0000.0,0017.05,0011.54,0010.85
2023-01-20 17:36:00,,0828.4,5.00,0.00,22.5,21.0,00.0,31.3,24.3,10.1,0000.0,0017.60,0011.54,0010.84
2023-01-20 17:37:00,,0828.4,5.00,0.00,22.5,21.0,00.0,31.3,24.3,10.0,0001.5,0017.74,0011.51,0010.85
2023-01-20 17:38:00,,0828.4,5.00,0.00,22.5,20.9,00.0,31.3,24.2,09.9,0001.8,0017.80,0011.46,0010.84
2023-01-20 17:39:00,,0828.4,5.02,0.00,22.5,20.9,00.0,31.3,24.2,10.0,0001.6,0018.43,0011.41,0010.80
2023-01-20 17:40:00,,0828.4,5.00,0.00,22.5,20.9,00.0,31.3,24.2,09.9,0001.8,0019.18,0011.34,0010.70
2023-01-20 17:41:00,,0828.3,5.00,0.00,22.5,20.9,00.0,31.3,24.2,10.0,0002.9,0019.15,0011.27,0010.58
2023-01-20 17:42:00,,0828.3,5.00,0.00,22.4,20.8,00.0,31.3,24.2,10.1,0002.7,0018.82,0011.16,0010.47
2023-01-20 17:43:00,,0828.3,5.00,0.00,22.4,20.8,00.0,31.3,24.1,10.1,0002.5,0018.31,0011.03,0010.39
2023-01-20 17:44:00,,0828.3,5.00,0.00,22.4,20.8,00.0,31.3,24.1,10.2,0002.9,0018.15,0010.91,0010.31
2023-01-20 17:45:00,,0828.3,5.02,0.00,22.4,21.0,00.0,31.2,24.1,10.2,0001.9,0018.52,0010.82,0010.21
2023-01-20 17:46:00,,0828.2,5.01,0.00,22.5,22.0,00.0,31.2,24.4,10.2,0001.5,0018.43,0010.69,0010.10
2023-01-20 17:47:00,,0828.2,5.00,0.00,22.6,22.9,00.0,31.3,24.6,10.2,0001.4,0017.79,0010.59,0010.02
2023-01-20 17:48:00,,0828.2,4.99,0.00,22.7,22.7,00.0,31.3,24.6,10.2,0000.9,0016.97,0010.51,0009.94
2023-01-20 17:49:00,,0828.2,4.99,0.00,22.7,22.3,00.0,31.3,24.6,10.1,0000.0,0016.71,0010.42,0009.87
2023-01-20 17:50:00,,0828.3,5.01,0.00,22.7,21.9,00.0,31.3,24.5,10.2,0000.0,0016.05,0010.34,0009.82
2023-01-20 17:51:00,,0828.2,4.99,0.00,22.7,21.6,00.0,31.3,24.5,10.1,0000.0,0015.43,0010.25,0009.78
2023-01-20 17:52:00,,0828.2,4.99,0.00,22.6,21.4,00.0,31.4,24.4,10.1,0000.0,0015.31,0010.22,0009.76
2023-01-20 17:53:00,,0828.2,4.99,0.00,22.6,21.2,00.0,31.4,24.4,10.0,0000.0,0016.04,0010.22,0009.76
2023-01-20 17:54:00,,0828.2,5.00,0.00,22.6,21.1,00.0,31.4,24.4,10.0,0000.0,0016.08,0010.22,0009.76
2023-01-20 17:55:00,,0828.1,5.02,0.00,22.6,21.0,00.0,31.3,24.3,10.1,0000.0,0016.22,0010.25,0009.75
2023-01-20 17:56:00,,0828.1,4.99,0.00,22.6,20.9,00.0,31.3,24.3,10.2,0000.0,0016.07,0010.25,0009.77
2023-01-20 17:57:00,,0828.1,4.99,0.00,22.6,20.9,00.0,31.3,24.3,10.0,0000.0,0016.45,0010.20,0009.72
2023-01-20 17:58:00,,0828.1,5.00,0.00,22.5,20.8,00.0,31.3,24.2,09.9,0000.0,0016.69,0010.11,0009.63
2023-01-20 17:59:00,,0828.1,5.00,0.00,22.5,20.9,00.0,31.3,24.2,10.0,0000.0,0017.37,0010.07,0009.56
